Theta_e
327 323 324 322 310 310 304 305 311 310 311 317 320 317 317 320 315 313 334 338 339 341 342 341 344 344 343 343 343 344 345 346 347 347 348 347 346 345 345 346 347 344 341 341 340 339 338 337 337
319 321 323 315 305 302 302 309 307 311 315 318 319 318 316 316 327 329 331 338 338 341 339 339 342 344 343 343 344 343 341 344 344 345 346 346 345 344 343 344 345 343 340 339 339 338 336 335 335
319 320 316 308 305 302 302 309 311 314 317 318 316 320 320 320 329 330 336 339 337 340 339 340 343 344 345 344 343 341 337 339 342 341 342 343 343 343 343 345 344 343 340 339 338 337 335 334 335
318 319 316 304 301 305 307 310 314 314 315 316 316 314 325 330 329 334 338 338 335 339 339 341 343 343 343 344 343 341 341 340 339 339 339 338 338 340 343 344 343 342 341 339 337 336 334 334 334
318 316 308 302 303 306 308 313 315 312 312 314 317 315 321 331 335 336 337 336 334 338 339 339 342 343 343 343 342 341 339 338 338 337 337 336 337 337 339 341 341 342 340 338 336 334 333 333 332
312 314 305 301 301 305 307 313 315 312 313 315 313 318 322 333 333 334 337 335 334 338 339 338 336 339 341 342 341 341 340 338 338 337 336 337 336 335 338 340 340 339 339 337 336 334 332 332 331
311 308 305 305 301 303 308 315 313 311 311 311 318 315 325 330 333 335 336 335 334 338 339 338 336 336 336 338 339 339 339 338 338 338 336 334 335 333 336 337 339 338 338 336 335 334 332 331 330
311 310 304 306 302 302 311 313 314 312 311 320 322 312 318 329 334 335 336 334 333 336 338 338 337 338 336 337 333 335 336 336 337 335 332 331 331 331 331 332 336 336 336 334 333 332 332 330 329
316 306 305 305 304 304 312 310 312 313 313 317 319 317 326 334 333 333 332 331 331 333 336 337 337 337 337 336 332 331 331 332 330 329 327 327 331 332 331 329 333 334 332 331 330 329 329 329 327
314 309 306 313 311 307 310 311 310 310 312 312 315 322 330 333 330 329 329 328 329 330 334 336 337 338 336 334 335 335 334 334 335 333 333 331 330 331 330 326 327 330 329 329 327 325 326 326 328
310 310 314 312 308 308 308 310 311 309 309 313 313 319 328 330 329 329 328 329 329 329 333 334 335 337 337 336 337 335 335 333 334 334 333 332 330 329 329 330 331 332 324 328 326 326 326 327 327
304 311 313 307 306 304 305 308 307 309 312 309 316 322 327 328 328 329 328 328 328 328 329 332 334 335 337 336 336 336 336 335 332 332 333 333 332 331 329 326 327 330 330 328 327 325 325 325 325
308 311 308 305 304 305 304 304 305 306 312 311 314 323 324 326 329 330 331 330 330 328 328 331 333 334 335 337 335 334 335 335 334 332 332 334 333 332 329 328 326 325 325 325 325 323 324 324 323
311 312 306 307 308 305 303 305 303 308 309 309 314 320 323 326 327 329 329 330 330 330 329 329 331 333 334 334 335 334 334 335 335 333 333 334 334 333 331 329 327 325 324 323 323 323 324 324 324
306 304 305 305 304 308 305 302 301 309 309 308 311 315 320 324 326 327 329 330 331 331 331 329 330 332 333 333 334 333 334 334 332 335 334 334 334 333 332 331 329 329 327 328 328 327 326 324 323
300 301 299 309 307 304 304 304 310 311 308 308 310 312 316 321 324 327 329 330 332 332 331 331 329 330 332 332 334 333 332 333 333 333 334 334 334 334 333 330 331 332 330 329 328 327 326 325 324
297 296 298 304 308 307 302 303 311 315 308 307 309 311 314 318 323 326 329 330 331 332 332 331 331 328 331 332 332 332 333 332 332 332 333 334 334 334 332 332 333 331 329 328 327 327 327 326 325
292 296 304 304 303 302 301 302 309 308 305 308 311 310 312 315 319 325 328 330 331 332 333 332 332 331 331 331 331 332 332 332 333 332 333 333 333 333 332 333 331 328 325 325 323 322 323 321 321
304 302 304 303 301 299 300 303 306 310 308 307 307 309 309 313 317 322 326 330 331 332 332 332 332 334 331 330 329 330 328 331 331 333 333 333 334 333 335 333 331 328 326 325 323 322 322 321 322
302 302 301 303 298 297 301 301 304 305 305 305 306 308 308 310 314 318 322 326 329 330 331 332 333 334 334 332 332 332 331 332 333 334 334 333 334 334 334 331 329 328 326 325 323 320 319 320 320
300 300 300 298 299 300 299 298 302 306 307 305 303 305 307 308 309 315 320 324 327 328 331 331 333 334 335 335 334 333 333 333 332 333 334 334 333 334 334 332 331 331 328 325 325 323 321 319 319
297 302 301 298 296 294 299 291 299 303 306 308 306 305 305 306 308 311 318 322 325 327 330 331 333 334 335 336 334 332 328 328 330 333 335 335 335 334 334 333 333 332 331 329 328 325 322 321 319
299 300 298 298 297 296 295 290 295 301 300 304 309 310 310 309 307 308 311 318 323 327 329 330 330 332 334 336 335 334 329 332 333 333 334 335 336 336 334 334 333 333 333 332 330 325 323 323 322
299 297 297 296 295 287 292 292 293 296 299 302 305 308 311 311 311 309 310 312 318 324 328 330 329 329 332 334 335 334 332 332 332 333 333 334 335 335 335 333 332 330 329 330 329 329 325 322 321
299 294 287 285 285 284 290 291 294 300 302 303 303 304 306 308 310 309 308 308 310 313 320 326 327 327 329 331 333 333 333 333 332 333 333 332 333 333 332 332 330 329 328 329 328 326 325 322 319
296 294 287 280 282 286 286 286 293 301 302 301 301 301 306 302 303 305 308 309 308 308 310 312 316 322 327 328 331 333 333 333 333 333 333 333 333 334 334 332 331 329 328 327 326 324 322 320 317
295 291 296 287 282 285 290 293 298 300 301 301 301 300 301 303 305 303 304 305 305 307 307 308 308 310 316 323 328 330 332 332 331 333 333 332 333 332 333 332 329 328 327 326 324 319 313 312 310
296 299 288 290 281 280 287 288 290 294 297 297 299 300 301 301 302 303 304 304 305 305 306 308 309 308 310 316 322 325 328 328 328 328 327 328 330 328 327 327 326 324 322 319 314 309 307 305 303
291 292 293 293 290 285 283 288 297 297 297 297 299 299 301 301 302 302 303 304 305 306 307 308 308 309 310 312 316 320 322 322 325 324 324 324 324 323 321 320 314 312 308 308 306 303 302 301 299
295 293 293 287 284 288 287 288 296 297 298 298 298 299 300 301 302 302 303 304 304 306 308 309 310 309 309 310 310 310 312 312 314 320 321 320 317 315 313 310 307 305 303 303 301 297 297 297 295
Wind_Speed
17 9 6 5 6 5 6 6 4 6 6 5 2 5 10 11 9 6 12 9 13 14 12 10 8 10 12 13 12 10 10 12 13 12 14 16 15 15 15 15 16 17 18 18 19 19 18 18 17
12 10 5 4 6 6 7 8 7 6 6 5 5 2 1 7 8 12 11 13 12 14 10 11 7 9 11 12 11 10 11 11 12 14 13 15 16 14 15 14 15 16 17 18 18 17 17 16 16
10 7 5 4 5 0 6 8 10 7 7 7 4 1 5 6 10 12 16 15 13 14 9 11 8 10 14 13 13 12 12 11 11 12 14 15 15 14 13 14 15 16 16 17 16 17 16 16 16
5 4 4 8 6 5 4 7 11 10 5 2 1 5 6 4 10 9 16 14 13 13 11 10 9 10 12 13 14 13 12 12 12 12 13 13 13 13 14 14 14 13 16 16 16 16 16 16 16
3 3 4 5 4 3 2 6 10 10 8 7 4 6 6 7 6 17 16 13 12 13 11 12 9 9 10 11 14 13 12 12 12 12 13 12 13 12 11 13 16 15 16 15 15 15 15 16 15
2 4 5 7 6 3 2 6 9 6 5 7 5 9 8 8 12 15 14 13 12 13 12 12 10 8 9 9 11 12 12 12 12 12 12 12 11 11 9 12 14 15 15 14 13 13 13 14 14
3 5 7 2 6 4 3 8 9 6 5 6 3 11 7 10 10 13 13 13 12 12 12 11 12 10 8 7 9 9 10 11 11 11 12 11 9 11 8 10 14 14 13 12 11 11 11 12 12
4 5 4 5 8 4 6 10 2 4 6 3 2 4 7 14 11 13 13 12 12 11 11 11 11 10 10 8 6 8 8 9 12 11 10 10 10 7 9 8 12 13 11 11 10 9 9 10 9
2 3 7 6 5 4 7 10 3 2 6 4 6 4 5 20 15 13 13 13 11 10 10 10 11 9 10 10 7 7 8 10 11 9 7 9 7 8 8 8 10 12 9 9 8 8 6 6 6
3 6 9 3 3 2 8 9 9 6 7 6 8 6 11 17 17 16 16 14 14 12 10 12 10 12 7 7 10 9 8 8 7 8 6 4 5 6 9 7 8 9 7 7 6 3 1 7 2
6 9 8 7 3 2 5 8 3 7 8 9 12 13 17 17 16 16 15 15 15 15 11 12 12 10 11 8 5 4 5 4 5 7 5 5 6 5 5 5 5 5 5 3 3 2 3 3 4
4 11 8 3 4 2 4 3 7 9 3 6 4 16 18 19 19 19 18 16 15 15 15 12 13 11 11 5 4 4 5 5 5 5 7 5 4 4 4 3 3 3 3 2 1 2 2 2 2
12 5 4 2 5 4 2 4 5 8 11 3 3 14 17 18 19 17 16 15 14 15 15 15 14 12 10 11 5 5 6 6 6 6 7 5 5 5 4 4 4 3 3 2 2 1 0 1 1
4 14 4 6 5 4 4 6 3 8 2 8 9 14 14 17 19 17 16 16 16 15 15 15 14 13 12 10 11 8 7 6 5 6 7 7 5 5 5 4 4 4 3 2 2 1 1 1 1
1 8 7 7 6 6 6 12 12 14 6 9 12 12 14 15 15 18 18 17 17 14 15 15 15 14 13 12 11 8 7 7 6 6 8 9 7 7 6 5 4 4 3 3 2 2 2 2 2
5 4 8 13 11 5 6 17 18 16 10 11 13 13 14 15 17 16 15 15 15 15 16 15 12 14 13 12 9 8 6 7 8 8 7 10 9 8 7 5 4 4 4 3 2 2 3 3 2
3 7 15 10 10 8 11 10 15 11 11 12 11 13 14 15 16 15 15 15 16 16 16 16 15 15 14 11 8 9 9 8 8 8 8 10 10 9 7 5 4 5 3 1 1 2 3 3 2
6 7 15 17 8 8 13 17 11 6 10 14 14 13 13 14 17 16 17 16 16 16 15 14 12 15 14 9 8 8 7 8 7 8 8 10 9 11 9 6 6 6 4 3 2 3 2 2 2
16 19 18 10 6 6 14 18 17 16 14 14 13 14 12 15 13 15 15 16 15 15 16 17 16 15 11 9 9 9 9 8 7 8 11 10 9 9 9 6 7 5 5 6 5 3 4 3 2
11 14 13 4 3 5 13 19 16 15 18 15 16 15 14 14 13 14 17 17 17 17 17 17 17 17 15 10 9 8 8 8 8 8 9 11 9 9 9 7 8 9 6 7 7 6 3 2 3
14 16 12 10 4 10 12 23 23 23 21 17 16 14 15 14 15 15 17 18 17 18 18 17 18 18 16 15 9 8 8 7 7 7 8 10 11 10 11 10 8 8 7 6 7 7 8 4 3
17 7 8 6 5 7 0 9 12 8 15 21 19 18 17 15 11 14 16 17 19 20 17 18 17 18 16 17 12 15 12 9 10 9 8 9 12 13 12 11 11 10 7 8 8 7 6 6 5
9 12 9 7 9 11 14 8 7 11 14 15 16 18 20 18 18 18 16 18 18 16 18 18 18 16 16 17 16 12 15 10 9 9 11 12 10 11 12 12 12 10 7 8 8 8 9 7 5
13 11 7 5 6 10 16 14 7 11 8 7 11 15 17 18 16 16 14 11 13 12 14 16 19 19 18 17 18 18 17 15 11 11 9 8 8 9 13 12 10 9 6 7 7 8 8 8 5
16 16 6 5 7 8 4 9 13 5 4 10 11 9 8 10 14 15 14 10 11 13 13 12 15 17 18 19 19 20 19 17 16 13 10 10 8 8 11 12 10 8 9 7 5 6 7 7 5
21 19 7 9 7 4 1 10 4 8 6 6 9 11 9 7 6 8 9 8 9 8 8 10 11 13 15 16 18 16 17 12 12 13 10 9 9 9 10 10 10 9 8 6 6 4 3 5 4
22 20 4 6 2 1 7 8 11 15 13 10 9 7 8 10 9 8 8 9 9 9 10 11 11 10 11 13 12 14 13 14 12 12 10 9 9 7 7 8 9 9 8 7 6 4 4 4 4
16 16 8 5 7 7 7 8 9 6 6 2 3 2 3 2 3 5 6 5 4 6 7 9 10 11 11 11 10 10 11 13 13 10 10 7 6 6 6 6 7 6 7 7 6 5 5 6 4
11 17 7 7 3 3 3 5 3 9 3 2 2 3 5 4 4 3 3 3 2 3 4 6 8 8 7 6 6 7 7 9 8 5 6 5 6 8 7 8 8 7 7 6 8 6 7 8 7
14 16 13 6 6 4 2 9 6 8 5 0 2 2 4 3 4 3 2 3 3 3 3 3 4 5 5 6 6 6 6 7 7 6 6 4 5 5 7 8 9 8 8 7 11 8 7 8 9
Wind_Direction
297 295 292 258 236 248 130 129 94 126 143 78 39 307 15 24 4 48 130 118 128 115 119 126 106 102 98 100 98 89 89 86 90 92 104 101 95 89 86 89 90 83 83 81 77 73 71 70 69
307 310 243 279 256 206 123 130 163 147 77 135 134 221 254 75 63 123 124 134 124 123 120 125 109 102 110 103 98 97 100 85 81 84 93 101 96 92 86 86 89 89 87 85 79 77 73 71 70
282 281 278 278 279 278 129 173 132 118 138 160 148 23 0 66 119 136 122 133 131 119 116 112 108 101 104 107 95 96 104 111 90 84 85 85 80 91 90 83 90 88 89 86 79 75 72 69 71
304 208 214 245 199 67 58 162 131 141 146 176 19 121 105 302 128 116 139 135 135 122 120 121 105 110 106 111 104 96 95 97 92 87 86 83 77 72 71 88 79 86 88 83 80 73 68 65 66
251 238 239 245 140 106 88 130 156 166 148 158 187 112 98 97 115 135 139 139 140 130 129 133 113 109 106 107 109 108 103 98 94 91 87 81 78 66 68 82 80 81 93 86 83 77 71 67 65
287 292 225 208 179 125 147 178 169 181 144 118 189 130 122 120 150 147 144 138 146 133 145 135 123 114 106 103 109 112 114 110 104 100 94 93 94 101 84 78 87 79 81 89 85 81 77 72 68
9 249 242 277 159 183 133 185 182 181 153 149 80 150 114 152 154 153 147 145 148 140 139 139 137 125 104 103 106 109 116 117 108 96 95 93 84 105 71 78 91 86 90 88 83 79 77 72 65
120 282 198 224 191 156 139 168 240 195 108 94 357 160 162 160 172 161 151 154 149 153 150 151 142 153 144 138 98 104 96 86 104 99 96 94 84 81 92 82 100 93 86 85 80 77 82 78 67
322 347 224 208 208 158 155 182 178 58 144 168 162 345 36 139 152 181 161 161 155 163 162 158 151 158 147 138 127 117 102 104 110 112 126 165 129 131 118 48 86 95 92 90 83 78 89 114 99
163 219 226 286 230 190 173 205 159 189 167 188 173 116 139 147 161 180 174 173 166 163 205 159 182 158 151 155 161 155 146 157 148 145 169 114 126 70 95 76 66 78 90 92 90 90 238 225 74
187 234 195 256 298 321 172 204 188 230 206 206 193 165 159 163 176 181 184 185 179 175 184 176 182 176 161 172 170 167 178 156 157 153 150 138 122 150 144 144 159 152 210 162 178 168 37 32 4
199 239 273 145 134 152 203 120 213 223 192 26 255 160 169 176 188 191 190 190 183 184 181 193 181 186 169 172 174 188 175 169 170 167 163 156 160 166 159 161 147 169 194 137 159 87 39 30 33
227 182 234 142 161 146 124 203 271 239 243 152 175 155 185 188 190 196 198 192 187 188 188 187 188 186 184 167 193 192 211 185 179 167 178 185 164 167 170 157 172 173 176 192 187 180 188 160 333
256 230 206 220 220 191 218 215 243 216 214 189 184 189 194 200 197 189 201 197 192 196 193 187 197 191 187 188 192 187 196 202 195 183 183 196 183 176 176 171 174 171 186 173 206 228 257 282 294
150 206 201 195 198 226 211 238 233 244 181 206 206 201 204 205 203 204 197 201 196 195 198 196 194 194 196 195 182 208 187 187 202 215 193 194 199 188 187 181 182 176 174 184 202 214 257 264 223
204 238 204 214 193 177 206 250 222 228 217 228 211 206 198 208 211 213 203 204 201 199 199 196 192 199 202 199 196 191 199 194 197 212 207 201 203 203 200 192 195 170 179 202 222 227 246 255 270
269 206 207 190 207 201 202 255 244 221 225 242 236 215 204 202 205 210 206 208 202 202 199 195 192 204 200 205 203 206 204 202 208 200 214 201 204 209 210 207 187 170 175 220 348 317 299 322 347
159 226 213 221 178 213 220 244 251 245 243 249 247 231 212 215 205 201 205 205 207 202 199 196 197 205 200 198 202 210 208 213 217 215 212 205 205 207 212 206 185 183 169 190 188 203 208 277 310
181 201 225 199 120 236 236 255 250 240 244 248 251 240 224 224 213 200 201 201 206 206 200 196 201 199 194 196 198 203 210 208 215 216 215 210 206 205 215 205 195 185 191 195 187 187 218 226 207
229 215 220 143 138 246 268 265 254 243 241 238 243 248 238 231 211 199 193 193 205 206 207 205 201 199 197 195 201 206 213 217 212 210 208 214 209 202 206 189 192 191 195 190 185 184 184 220 170
212 208 221 224 168 230 267 272 257 243 238 230 238 242 250 236 224 206 199 196 193 204 206 209 205 205 201 203 196 201 216 216 213 208 203 209 211 205 195 205 208 203 193 205 204 196 204 209 189
201 224 226 181 241 256 195 289 280 271 223 216 223 227 231 232 226 227 199 205 200 199 197 206 211 207 206 196 203 201 208 202 216 210 209 208 207 208 207 207 210 209 198 211 206 203 205 202 202
202 164 176 230 255 276 252 262 264 242 244 234 233 227 238 222 216 215 215 203 211 202 197 198 202 210 206 202 205 200 210 213 207 214 205 208 209 212 210 210 212 208 205 209 203 192 197 206 206
125 139 144 201 256 257 244 232 252 249 271 237 253 251 238 240 228 222 213 210 211 212 207 198 197 202 203 203 204 207 205 213 206 213 204 206 205 208 213 212 205 199 189 198 200 202 202 199 199
171 160 158 205 207 243 29 238 247 306 304 290 269 274 274 261 242 229 220 206 202 203 204 217 210 208 203 203 202 206 208 209 216 208 207 198 208 201 206 201 206 201 200 188 180 187 195 178 178
194 183 172 193 199 209 113 235 260 251 265 273 273 277 269 246 249 253 247 212 214 205 204 213 223 227 211 210 213 210 212 210 210 211 205 207 210 208 204 198 203 194 181 183 170 169 148 155 160
189 202 140 106 38 316 214 245 252 243 274 291 241 256 278 254 244 234 227 219 215 208 206 211 213 219 233 223 217 221 218 215 215 211 210 211 210 203 206 195 191 185 176 171 161 150 135 126 112
189 162 158 207 177 223 223 248 241 174 230 67 190 285 30 350 271 263 236 223 226 236 237 221 215 212 217 221 220 220 216 222 225 220 214 209 204 156 177 186 175 153 136 138 137 124 116 117 105
182 182 197 180 207 235 303 252 108 213 164 197 22 2 351 346 327 295 259 204 214 239 227 218 216 217 212 214 215 223 225 226 220 214 214 190 175 174 164 156 133 139 130 134 121 124 122 124 123
199 188 186 177 189 246 19 262 148 151 168 205 62 36 16 12 343 332 203 201 189 199 199 214 206 200 202 188 189 205 204 207 216 208 204 173 147 132 142 141 134 137 132 157 130 130 126 137 131